MST,Max TemperatureF,Mean TemperatureF,Min TemperatureF,Max Dew PointF,MeanDew PointF,Min DewpointF,Max Humidity, Mean Humidity, Min Humidity, Max Sea Level PressureIn, Mean Sea Level PressureIn, Min Sea Level PressureIn, Max VisibilityMiles, Mean VisibilityMiles, Min VisibilityMiles, Max Wind SpeedMPH, Mean Wind SpeedMPH, Max Gust SpeedMPH,PrecipitationIn, CloudCover, Events, WindDirDegrees
2012-11-1,78,58,39,19,15,10,39,20,9,30.16,30.09,30.02,10,10,10,9,3,,0.00,0,,126
2012-11-2,78,60,42,19,16,10,31,20,10,30.09,30.02,29.97,10,10,10,9,4,,0.00,0,,83
2012-11-3,75,60,44,27,23,16,38,25,17,30.15,30.09,30.02,10,10,10,12,5,16,0.00,2,,164
2012-11-4,75,58,41,32,28,23,57,34,15,30.26,30.20,30.16,10,10,10,9,5,,0.00,0,,1
2012-11-5,75,55,35,25,19,14,56,27,10,30.27,30.20,30.16,10,10,10,8,4,,0.00,0,,144
2012-11-6,77,57,37,23,18,14,38,23,12,30.26,30.20,30.15,10,10,9,9,4,,0.00,0,,95
2012-11-7,78,58,37,23,19,16,42,24,11,30.23,30.14,30.06,10,10,10,12,5,16,0.00,0,,162
2012-11-8,78,62,46,30,24,18,37,23,14,30.08,30.01,29.94,10,10,10,16,7,23,0.00,0,,175
2012-11-9,75,62,50,50,38,25,77,42,25,30.05,29.96,29.88,10,10,2,18,9,44,0.02,3,Rain,175
2012-11-10,69,58,46,41,33,16,51,39,25,29.93,29.84,29.78,10,10,4,33,15,40,0.00,2,,210
2012-11-11,50,44,37,16,7,0,41,23,13,30.35,30.15,29.94,10,10,10,15,10,22,0.00,2,,342
2012-11-12,55,40,26,5,-1,-4,31,18,9,30.45,30.36,30.30,10,10,10,17,9,,0.00,0,,350
2012-11-13,59,41,23,5,2,-2,36,20,10,30.32,30.26,30.18,10,10,8,9,3,,0.00,0,,358
2012-11-14,64,44,24,10,5,0,40,22,11,30.35,30.25,30.17,10,10,1,10,4,,0.00,0,,127
2012-11-15,68,47,26,16,11,3,38,23,13,30.27,30.21,30.17,10,10,1,10,4,,0.00,0,,172
2012-11-16,68,56,44,25,15,10,32,22,12,30.32,30.24,30.18,10,10,10,10,6,,0.00,1,,178
2012-11-17,66,50,35,39,27,16,57,39,26,30.27,30.19,30.14,10,10,10,10,4,,0.00,1,,215
2012-11-18,62,55,46,54,44,32,100,72,47,30.22,30.17,30.11,10,10,5,9,5,,0.05,3,Rain,161
2012-11-19,66,52,39,46,35,19,93,56,28,30.31,30.26,30.19,10,10,10,12,5,17,0.00,0,,19
2012-11-20,68,48,28,32,26,18,86,43,15,30.34,30.26,30.20,10,10,10,8,2,,0.00,0,,128
2012-11-21,69,56,44,45,35,25,81,48,28,30.25,30.16,30.10,10,10,10,16,4,,0.00,1,,171
2012-11-22,73,57,41,45,34,16,81,48,20,30.23,30.15,30.10,10,10,10,10,4,,0.00,0,,12
2012-11-23,62,48,33,28,22,14,65,40,21,30.48,30.38,30.24,10,10,10,13,5,,0.00,0,,178
2012-11-24,62,45,28,25,19,14,64,39,20,30.41,30.26,30.11,10,10,10,8,4,,0.00,0,,62
2012-11-25,68,50,32,36,24,16,65,39,20,30.11,30.03,29.93,10,10,9,10,3,,0.00,0,,148
2012-11-26,69,52,35,28,21,14,60,30,16,30.29,30.11,30.00,10,10,5,14,4,18,0.00,0,,115
2012-11-27,62,47,32,25,23,19,65,42,24,30.42,30.33,30.28,10,10,9,10,4,,0.00,0,Rain,336
2012-11-28,68,48,28,39,27,19,75,46,25,30.35,30.26,30.18,10,10,10,9,4,,0.00,0,Rain,154
2012-11-29,68,52,37,36,28,21,70,43,21,30.23,30.17,30.12,10,10,10,10,3,,0.00,0,,37
2012-11-30,68,52,35,32,23,16,56,35,20,30.23,30.15,30.10,10,10,10,12,5,,0.00,0,,148